QPF
0.00 0.00 0.00 0.00 0.00 0.00 0.00 0.00 0.00 0.00 0.00 0.00 0.00 0.00 0.00 0.00 0.00 0.00 0.00 0.00 0.00 0.00 0.00 0.00 0.00 0.00 0.00 0.00 0.00 0.00 0.00 0.00 0.02 0.03 0.01 0.00 0.00 0.00 0.00 0.00 0.00 0.00 0.00 0.00
0.00 0.00 0.00 0.00 0.00 0.00 0.00 0.00 0.00 0.00 0.00 0.00 0.00 0.00 0.00 0.00 0.00 0.00 0.00 0.00 0.00 0.00 0.00 0.00 0.00 0.00 0.00 0.00 0.00 0.00 0.00 0.00 0.06 0.03 0.00 0.00 0.00 0.00 0.00 0.00 0.00 0.00 0.00 0.00
0.00 0.00 0.00 0.00 0.00 0.00 0.00 0.00 0.00 0.00 0.00 0.00 0.00 0.00 0.00 0.00 0.00 0.00 0.00 0.00 0.00 0.00 0.00 0.00 0.00 0.00 0.00 0.00 0.00 0.00 0.00 0.00 0.02 0.03 0.01 0.01 0.01 0.00 0.00 0.00 0.00 0.00 0.00 0.00
0.00 0.00 0.00 0.00 0.00 0.00 0.00 0.00 0.00 0.00 0.00 0.00 0.00 0.00 0.00 0.00 0.00 0.00 0.00 0.00 0.00 0.00 0.00 0.00 0.00 0.00 0.00 0.00 0.00 0.00 0.00 0.00 0.00 0.01 0.00 0.00 0.00 0.00 0.00 0.00 0.00 0.00 0.00 0.00
0.00 0.00 0.00 0.00 0.00 0.00 0.00 0.00 0.00 0.00 0.00 0.00 0.00 0.00 0.00 0.00 0.00 0.00 0.00 0.00 0.00 0.00 0.00 0.00 0.00 0.00 0.00 0.00 0.00 0.00 0.00 0.00 0.00 0.00 0.00 0.00 0.00 0.00 0.00 0.00 0.00 0.00 0.00 0.00
0.00 0.00 0.00 0.00 0.00 0.00 0.00 0.00 0.00 0.00 0.00 0.00 0.00 0.00 0.00 0.00 0.00 0.00 0.00 0.00 0.00 0.00 0.00 0.00 0.00 0.00 0.00 0.00 0.00 0.00 0.00 0.00 0.00 0.00 0.00 0.00 0.00 0.00 0.00 0.00 0.00 0.00 0.00 0.00
0.00 0.00 0.00 0.00 0.00 0.00 0.00 0.00 0.00 0.00 0.00 0.00 0.00 0.00 0.00 0.00 0.00 0.00 0.00 0.00 0.00 0.00 0.00 0.00 0.00 0.00 0.00 0.00 0.00 0.00 0.00 0.00 0.00 0.00 0.00 0.00 0.00 0.00 0.00 0.00 0.00 0.00 0.00 0.00
0.00 0.00 0.00 0.00 0.00 0.00 0.00 0.00 0.00 0.00 0.00 0.00 0.00 0.00 0.00 0.00 0.00 0.00 0.00 0.00 0.00 0.00 0.00 0.00 0.00 0.00 0.00 0.00 0.00 0.00 0.00 0.00 0.00 0.00 0.00 0.00 0.00 0.00 0.00 0.00 0.00 0.00 0.00 0.00
0.00 0.00 0.00 0.00 0.00 0.00 0.00 0.00 0.00 0.00 0.00 0.00 0.00 0.00 0.00 0.00 0.00 0.00 0.00 0.00 0.00 0.00 0.00 0.00 0.00 0.00 0.00 0.00 0.00 0.00 0.00 0.00 0.00 0.00 0.00 0.00 0.00 0.00 0.00 0.00 0.00 0.00 0.00 0.00
0.00 0.00 0.00 0.00 0.00 0.00 0.00 0.00 0.00 0.00 0.00 0.00 0.00 0.00 0.00 0.00 0.00 0.00 0.00 0.00 0.00 0.00 0.00 0.00 0.00 0.00 0.00 0.00 0.00 0.00 0.00 0.00 0.00 0.00 0.00 0.00 0.00 0.00 0.00 0.00 0.00 0.00 0.00 0.00
0.00 0.00 0.00 0.00 0.00 0.00 0.00 0.00 0.00 0.00 0.00 0.00 0.00 0.00 0.00 0.00 0.00 0.00 0.00 0.00 0.00 0.00 0.00 0.00 0.00 0.00 0.00 0.00 0.00 0.00 0.00 0.00 0.00 0.00 0.00 0.00 0.00 0.00 0.00 0.00 0.00 0.00 0.00 0.00
0.00 0.00 0.00 0.00 0.00 0.00 0.00 0.00 0.00 0.00 0.00 0.00 0.00 0.00 0.00 0.00 0.00 0.00 0.00 0.00 0.00 0.00 0.00 0.00 0.00 0.00 0.00 0.00 0.00 0.00 0.00 0.00 0.00 0.00 0.00 0.00 0.00 0.00 0.00 0.00 0.00 0.00 0.00 0.00
0.00 0.00 0.00 0.00 0.00 0.00 0.00 0.00 0.00 0.00 0.00 0.00 0.00 0.00 0.00 0.00 0.00 0.00 0.00 0.00 0.00 0.00 0.00 0.00 0.00 0.00 0.00 0.00 0.00 0.00 0.00 0.00 0.00 0.00 0.00 0.00 0.00 0.00 0.00 0.00 0.00 0.00 0.00 0.00
0.00 0.00 0.00 0.00 0.00 0.00 0.00 0.00 0.00 0.00 0.00 0.00 0.00 0.00 0.00 0.00 0.00 0.00 0.00 0.00 0.00 0.00 0.00 0.00 0.00 0.00 0.00 0.00 0.00 0.00 0.00 0.00 0.00 0.00 0.00 0.00 0.00 0.00 0.00 0.00 0.00 0.00 0.00 0.00
0.00 0.00 0.00 0.00 0.00 0.00 0.00 0.00 0.00 0.00 0.00 0.00 0.00 0.00 0.00 0.00 0.00 0.00 0.00 0.00 0.00 0.00 0.00 0.00 0.00 0.00 0.00 0.00 0.00 0.00 0.00 0.00 0.00 0.00 0.00 0.00 0.00 0.00 0.00 0.00 0.00 0.00 0.00 0.00
0.00 0.00 0.00 0.00 0.00 0.00 0.00 0.00 0.00 0.00 0.00 0.00 0.00 0.00 0.00 0.00 0.00 0.00 0.00 0.00 0.00 0.00 0.00 0.00 0.00 0.00 0.00 0.00 0.00 0.00 0.00 0.00 0.00 0.00 0.00 0.00 0.00 0.00 0.00 0.00 0.00 0.00 0.01 0.03
0.00 0.00 0.00 0.00 0.00 0.00 0.00 0.00 0.00 0.00 0.00 0.00 0.00 0.00 0.00 0.00 0.00 0.00 0.00 0.00 0.00 0.00 0.00 0.00 0.00 0.00 0.00 0.00 0.00 0.00 0.00 0.00 0.00 0.00 0.00 0.00 0.00 0.00 0.00 0.00 0.00 0.00 0.01 0.12
0.00 0.00 0.00 0.00 0.00 0.00 0.00 0.00 0.00 0.00 0.00 0.00 0.00 0.00 0.00 0.00 0.00 0.00 0.00 0.00 0.00 0.00 0.00 0.00 0.00 0.00 0.00 0.00 0.00 0.00 0.00 0.00 0.00 0.00 0.00 0.00 0.00 0.00 0.00 0.00 0.00 0.00 0.02 0.06
0.00 0.00 0.00 0.00 0.00 0.00 0.00 0.00 0.00 0.00 0.00 0.00 0.00 0.00 0.00 0.00 0.00 0.00 0.00 0.00 0.00 0.00 0.00 0.00 0.00 0.00 0.00 0.00 0.00 0.00 0.00 0.00 0.00 0.00 0.00 0.00 0.00 0.00 0.01 0.03 0.06 0.03 0.01 0.02
0.00 0.00 0.00 0.00 0.00 0.00 0.00 0.00 0.00 0.00 0.00 0.00 0.00 0.00 0.00 0.00 0.00 0.00 0.00 0.00 0.00 0.00 0.00 0.00 0.00 0.00 0.00 0.00 0.00 0.00 0.00 0.00 0.00 0.00 0.00 0.01 0.01 0.04 0.05 0.10 0.16 0.21 0.08 0.05
0.00 0.00 0.00 0.00 0.00 0.00 0.00 0.00 0.00 0.00 0.00 0.00 0.00 0.00 0.00 0.00 0.00 0.00 0.00 0.00 0.00 0.00 0.00 0.00 0.00 0.00 0.00 0.00 0.00 0.00 0.00 0.00 0.00 0.00 0.00 0.00 0.02 0.03 0.02 0.10 0.15 0.14 0.09 0.05
0.00 0.00 0.00 0.00 0.00 0.00 0.00 0.00 0.00 0.00 0.00 0.00 0.00 0.00 0.00 0.00 0.00 0.00 0.00 0.00 0.00 0.00 0.00 0.00 0.00 0.00 0.00 0.00 0.00 0.00 0.00 0.00 0.00 0.00 0.00 0.00 0.02 0.03 0.08 0.09 0.10 0.10 0.05 0.02
0.00 0.00 0.00 0.00 0.00 0.00 0.00 0.00 0.00 0.00 0.00 0.00 0.00 0.00 0.00 0.00 0.00 0.00 0.00 0.00 0.00 0.00 0.00 0.00 0.00 0.00 0.00 0.00 0.00 0.00 0.00 0.00 0.00 0.00 0.00 0.00 0.02 0.05 0.13 0.21 0.07 0.02 0.00 0.00
0.00 0.00 0.00 0.00 0.00 0.00 0.00 0.00 0.00 0.00 0.00 0.00 0.00 0.00 0.00 0.00 0.00 0.00 0.00 0.00 0.00 0.00 0.00 0.00 0.00 0.00 0.00 0.00 0.00 0.00 0.00 0.00 0.00 0.00 0.00 0.00 0.01 0.01 0.01 0.02 0.02 0.00 0.00 0.00
0.00 0.00 0.01 0.01 0.00 0.00 0.00 0.00 0.00 0.00 0.00 0.00 0.00 0.00 0.00 0.00 0.00 0.00 0.00 0.00 0.00 0.00 0.00 0.00 0.00 0.00 0.00 0.00 0.00 0.00 0.00 0.00 0.00 0.00 0.00 0.00 0.01 0.02 0.05 0.04 0.01 0.00 0.00 0.00
0.00 0.00 0.00 0.00 0.00 0.00 0.00 0.00 0.00 0.00 0.00 0.00 0.00 0.00 0.00 0.00 0.00 0.00 0.00 0.00 0.00 0.00 0.00 0.00 0.00 0.00 0.00 0.00 0.00 0.00 0.00 0.00 0.00 0.00 0.00 0.00 0.00 0.00 0.02 0.03 0.01 0.00 0.00 0.00
MSLP
1005.37 1004.66 1003.43 1002.83 1002.42 1001.98 1001.97 1002.38 1002.53 1002.61 1002.87 1003.41 1002.67 1002.22 1001.80 1002.33 1003.26 1003.63 1003.88 1004.37 1004.98 1005.75 1006.35 1007.29 1008.22 1009.11 1010.02 1011.00 1012.02 1012.71 1013.30 1014.48 1015.11 1015.65 1015.66 1015.76 1015.90 1016.03 1016.33 1015.81 1015.97 1016.61 1016.54 1016.72
1004.09 1003.49 1002.87 1002.57 1002.20 1002.04 1002.33 1002.37 1002.18 1002.17 1002.99 1003.02 1002.29 1001.70 1000.86 1001.15 1001.85 1002.53 1003.05 1003.27 1003.95 1004.67 1005.37 1006.46 1007.51 1008.30 1009.37 1010.52 1011.55 1012.43 1012.99 1014.21 1014.88 1015.30 1015.32 1015.41 1015.49 1015.53 1016.07 1015.65 1016.58 1016.51 1016.55 1016.76
1002.90 1001.95 1002.19 1002.34 1002.03 1002.35 1002.27 1002.01 1001.74 1001.91 1002.41 1002.69 1001.79 1000.73 999.79 1000.28 1001.03 1001.54 1002.10 1002.64 1002.89 1003.53 1004.42 1005.62 1006.72 1007.47 1008.53 1009.76 1010.98 1011.93 1012.74 1013.63 1014.48 1014.84 1015.09 1015.27 1015.25 1015.67 1016.34 1016.02 1016.59 1016.54 1016.45 1016.65
1002.41 1002.24 1002.16 1002.07 1001.95 1002.25 1001.61 1001.61 1001.92 1002.05 1002.43 1001.53 1001.19 1000.01 999.50 999.31 999.93 1000.55 1001.16 1001.59 1002.01 1002.57 1003.56 1004.56 1005.78 1006.80 1007.61 1008.78 1010.29 1011.42 1012.47 1013.07 1013.76 1014.47 1014.40 1014.74 1014.96 1015.23 1015.87 1015.88 1015.76 1016.02 1016.32 1016.38
1001.71 1001.76 1001.64 1001.87 1001.69 1001.83 1001.62 1001.51 1001.80 1001.87 1001.89 1001.56 1000.62 999.82 998.41 998.40 998.67 998.97 999.47 1000.15 1000.77 1001.49 1002.23 1003.35 1004.66 1005.93 1006.73 1008.00 1009.44 1010.63 1012.00 1012.77 1013.17 1013.74 1014.08 1014.63 1014.79 1014.67 1015.24 1015.25 1015.32 1015.99 1015.85 1016.13
1001.73 1001.45 1001.66 1001.42 1001.50 1001.65 1001.83 1002.07 1001.84 1001.76 1001.31 1000.38 999.49 998.78 997.50 996.98 997.79 998.09 998.28 998.57 999.58 1000.28 1001.15 1002.24 1003.57 1005.02 1006.09 1007.17 1008.58 1009.92 1011.35 1012.31 1012.85 1013.45 1013.96 1014.34 1014.44 1014.91 1014.75 1015.07 1014.73 1015.05 1015.16 1015.52
1001.21 1001.17 1001.28 1001.72 1001.27 1001.10 1001.38 1001.25 1000.67 1000.27 999.58 998.66 997.73 997.48 996.86 996.98 997.39 997.76 997.86 998.02 998.39 999.15 1000.30 1001.26 1002.55 1003.91 1005.26 1006.31 1007.74 1009.03 1010.65 1011.74 1012.41 1013.01 1013.53 1013.80 1014.05 1014.36 1014.07 1014.29 1014.39 1014.39 1014.52 1014.60
999.49 999.36 999.75 1000.54 1000.87 1000.23 1000.68 1000.47 999.52 998.53 997.77 996.80 996.96 997.08 996.69 996.99 997.18 997.31 997.40 997.42 998.01 998.44 998.85 1000.37 1001.65 1003.03 1004.44 1005.71 1007.01 1008.21 1009.69 1010.87 1011.70 1012.33 1012.87 1013.36 1013.78 1013.86 1014.06 1014.18 1013.81 1014.20 1014.01 1013.90
998.39 998.65 999.09 999.48 1000.07 1000.64 999.98 999.98 999.93 999.09 998.41 997.56 996.69 996.46 996.26 996.24 996.71 996.64 996.47 997.00 997.32 998.09 998.61 999.44 1000.85 1002.29 1003.66 1005.07 1006.24 1007.41 1008.68 1009.97 1010.78 1011.43 1012.22 1012.88 1013.37 1013.61 1013.52 1013.77 1014.21 1014.15 1014.17 1014.05
999.00 998.82 998.92 999.38 999.99 999.82 999.80 999.47 999.15 999.00 998.38 997.52 996.49 996.11 995.64 995.75 996.54 996.69 996.58 996.75 997.23 998.15 998.71 999.07 1000.15 1001.54 1003.01 1004.44 1005.61 1006.80 1007.86 1008.99 1009.68 1010.49 1011.42 1012.08 1012.58 1013.08 1013.22 1013.35 1013.61 1013.72 1013.99 1014.21
999.60 999.18 998.42 998.79 999.21 998.76 999.11 999.30 999.13 998.64 997.87 996.99 996.37 995.33 995.60 996.29 996.62 996.59 996.47 996.73 997.15 997.92 998.44 999.16 999.91 1001.07 1002.42 1003.86 1004.84 1006.12 1007.06 1008.07 1008.95 1009.60 1010.34 1011.08 1011.68 1012.16 1012.75 1012.91 1013.21 1013.66 1013.84 1013.91
999.33 998.97 998.44 998.13 998.12 998.34 998.12 997.76 997.99 998.03 998.21 997.79 997.10 995.81 995.44 995.94 996.46 996.72 996.77 996.91 997.18 998.34 998.47 999.11 999.83 1000.76 1001.92 1003.23 1004.17 1005.29 1006.24 1007.05 1007.90 1008.51 1009.37 1010.17 1010.86 1011.37 1011.81 1012.41 1012.66 1013.09 1013.44 1013.67
999.65 999.40 998.74 998.00 997.57 997.25 997.40 997.95 997.84 997.34 997.13 996.70 996.37 995.41 995.42 995.68 996.12 996.33 996.38 996.68 997.30 998.14 998.62 999.08 999.82 1000.68 1001.64 1002.75 1003.66 1004.35 1005.45 1006.26 1007.11 1007.93 1008.73 1009.40 1010.02 1010.57 1010.91 1011.44 1012.03 1012.43 1012.93 1013.26
1000.85 999.63 998.78 997.69 996.86 996.83 997.42 997.60 997.93 997.58 997.00 996.64 996.24 995.80 995.60 995.73 995.80 996.19 996.25 996.82 997.44 998.04 998.53 999.00 999.75 1000.59 1001.60 1002.41 1003.40 1003.99 1004.93 1005.62 1006.38 1007.26 1008.20 1008.85 1009.34 1009.79 1010.32 1010.74 1011.33 1011.83 1012.28 1012.73
1001.36 1000.35 999.92 998.97 998.24 997.80 997.88 997.92 998.07 997.87 997.70 997.36 996.86 996.04 995.73 995.68 995.66 996.02 996.22 996.85 997.59 998.06 998.58 998.94 999.64 1000.53 1001.60 1002.33 1003.18 1003.88 1004.49 1005.20 1005.94 1006.68 1007.67 1008.13 1008.64 1009.18 1009.68 1010.22 1010.71 1011.35 1011.74 1012.06
1001.32 1000.58 1000.39 999.51 999.08 998.71 998.22 998.36 998.22 998.09 998.10 997.99 997.73 997.02 996.90 996.50 996.47 996.57 996.87 997.07 997.34 997.83 998.66 999.16 999.80 1000.46 1001.45 1002.20 1002.96 1003.63 1004.17 1004.88 1005.67 1006.28 1006.95 1007.57 1008.14 1008.68 1009.08 1009.53 1010.15 1010.75 1011.22 1011.59
1001.23 1000.95 1000.61 999.72 999.96 999.14 998.36 998.62 998.44 998.19 998.00 997.95 997.46 997.29 997.09 996.90 996.86 996.82 997.22 997.69 998.39 998.71 998.56 999.22 999.82 1000.24 1001.02 1001.96 1002.80 1003.47 1004.13 1004.68 1005.38 1006.02 1006.68 1007.23 1007.92 1008.56 1009.00 1009.49 1009.93 1010.39 1010.83 1011.17
1002.00 1001.81 1001.35 1000.83 1000.58 998.94 998.68 998.45 998.31 998.15 998.04 998.02 997.83 997.56 997.51 997.31 997.33 998.03 998.46 999.41 999.49 999.05 999.09 999.48 999.93 1000.29 1000.85 1001.56 1002.33 1003.26 1004.05 1004.68 1005.29 1005.96 1006.68 1007.28 1007.71 1008.27 1008.77 1009.32 1009.83 1010.16 1010.51 1010.95
1002.30 1002.22 1001.74 1001.43 1000.53 999.52 998.95 998.80 998.78 998.53 998.36 998.95 998.86 998.54 998.38 998.44 998.64 999.15 999.99 1000.52 1000.13 999.80 999.48 999.76 1000.08 1000.64 1001.16 1001.59 1002.26 1003.12 1003.91 1004.77 1005.50 1006.08 1006.59 1007.14 1007.46 1008.00 1008.61 1009.05 1009.49 1009.99 1010.80 1011.02
1002.00 1002.13 1002.21 1001.77 1000.95 999.51 999.29 999.14 999.67 1000.10 999.16 999.47 999.72 1000.01 999.88 1000.11 999.98 1000.43 1001.11 1000.79 1000.30 1000.03 1000.14 1000.14 1000.25 1000.90 1001.49 1001.90 1002.54 1003.21 1004.00 1004.74 1005.54 1005.96 1006.58 1007.13 1007.46 1008.02 1008.59 1009.25 1009.48 1010.43 1011.09 1011.79
1001.82 1002.05 1001.81 1001.45 1001.01 1000.20 1000.41 1000.14 1000.45 1000.88 1000.74 1001.13 1001.53 1001.68 1002.07 1002.28 1002.29 1002.06 1001.61 1001.13 1000.58 1000.32 1000.43 1000.52 1000.69 1001.21 1001.63 1002.29 1002.73 1003.55 1004.36 1005.72 1006.79 1007.10 1007.37 1007.59 1007.89 1008.85 1009.53 1010.23 1010.40 1010.86 1011.14 1012.05
1002.30 1002.77 1002.42 1001.97 1001.61 1000.63 1000.64 1000.54 1000.66 1001.51 1001.96 1002.34 1002.88 1003.33 1003.50 1003.37 1002.98 1002.49 1002.08 1001.36 1000.78 1000.53 1000.68 1000.96 1001.18 1001.64 1002.64 1002.74 1003.22 1004.33 1005.65 1006.95 1007.43 1007.84 1008.28 1008.90 1009.43 1009.67 1010.13 1010.48 1011.10 1011.76 1011.74 1011.72
1002.89 1002.83 1002.47 1002.21 1002.25 1003.02 1002.47 1002.24 1002.09 1002.68 1002.66 1002.90 1003.33 1003.68 1003.83 1003.65 1003.31 1002.93 1002.38 1001.78 1001.02 1000.90 1000.96 1001.08 1001.32 1002.31 1003.09 1003.69 1004.29 1004.95 1006.22 1007.15 1007.78 1008.39 1009.08 1009.60 1010.12 1010.38 1010.90 1011.28 1011.40 1011.43 1011.17 1011.42
1003.78 1003.65 1003.89 1003.83 1002.16 1002.55 1003.01 1003.51 1002.91 1002.88 1003.20 1003.29 1003.90 1004.11 1004.15 1003.72 1003.43 1003.04 1002.66 1002.23 1001.61 1001.15 1001.28 1001.19 1002.06 1003.02 1003.15 1003.63 1004.48 1005.26 1006.57 1007.41 1008.15 1008.65 1009.30 1009.91 1010.39 1010.97 1011.51 1011.57 1011.50 1011.67 1011.20 1011.95
1003.88 1003.79 1004.04 1004.02 1004.21 1003.19 1002.50 1003.33 1003.09 1003.27 1003.84 1004.07 1004.33 1004.41 1004.18 1003.86 1003.40 1003.25 1002.89 1002.65 1002.08 1001.57 1001.57 1001.56 1002.56 1003.33 1003.21 1003.78 1004.57 1005.62 1006.58 1007.29 1008.04 1008.78 1009.33 1009.98 1010.37 1010.93 1011.53 1012.19 1012.45 1011.63 1012.30 1013.58
1004.23 1003.62 1003.43 1002.72 1003.17 1003.30 1003.19 1003.39 1003.72 1004.11 1004.11 1004.14 1004.13 1004.07 1003.89 1003.72 1003.29 1003.16 1003.00 1002.84 1002.45 1001.94 1001.63 1002.15 1002.64 1003.25 1003.64 1004.09 1004.81 1005.62 1006.39 1006.87 1007.67 1008.36 1009.04 1009.72 1010.23 1010.35 1011.45 1011.70 1012.58 1012.74 1013.76 1014.14
Thickness
5810 5797 5796 5812 5823 5827 5821 5808 5800 5813 5823 5807 5810 5814 5825 5830 5822 5817 5819 5819 5817 5813 5817 5814 5809 5805 5799 5793 5786 5783 5780 5773 5770 5767 5767 5766 5765 5768 5768 5774 5775 5772 5774 5774
5805 5791 5818 5828 5829 5822 5813 5802 5803 5819 5818 5811 5812 5812 5835 5835 5829 5827 5823 5824 5823 5821 5821 5816 5811 5809 5803 5794 5788 5783 5781 5774 5770 5769 5771 5771 5772 5774 5770 5776 5770 5772 5774 5774
5798 5816 5828 5820 5817 5805 5806 5802 5807 5805 5813 5816 5814 5812 5832 5838 5836 5835 5834 5832 5833 5828 5823 5818 5813 5811 5807 5799 5791 5785 5781 5777 5773 5773 5772 5772 5774 5772 5765 5770 5768 5771 5774 5774
5807 5823 5814 5811 5807 5810 5796 5823 5813 5806 5794 5782 5820 5785 5822 5839 5829 5831 5831 5832 5833 5833 5833 5827 5819 5813 5811 5805 5798 5790 5783 5780 5778 5774 5775 5772 5769 5766 5766 5769 5773 5773 5773 5775
5803 5808 5808 5799 5808 5817 5804 5825 5813 5809 5797 5795 5803 5796 5827 5845 5830 5835 5840 5841 5840 5840 5839 5833 5826 5820 5818 5813 5803 5795 5786 5781 5781 5778 5777 5771 5769 5773 5772 5775 5775 5771 5776 5775
5810 5831 5818 5815 5820 5820 5821 5806 5807 5806 5800 5777 5808 5811 5824 5842 5836 5842 5853 5856 5847 5847 5845 5842 5838 5829 5820 5817 5808 5800 5788 5782 5782 5779 5775 5772 5771 5767 5771 5770 5776 5776 5779 5779
5803 5805 5820 5818 5803 5819 5811 5797 5774 5772 5781 5784 5839 5821 5833 5851 5852 5848 5849 5855 5859 5855 5848 5844 5837 5831 5823 5817 5810 5804 5791 5783 5783 5780 5777 5776 5775 5773 5776 5776 5777 5778 5779 5782
5792 5788 5813 5821 5806 5804 5800 5802 5790 5772 5794 5820 5840 5804 5827 5853 5858 5858 5859 5864 5861 5859 5859 5849 5843 5836 5828 5820 5813 5807 5796 5787 5785 5783 5781 5779 5777 5777 5777 5778 5783 5781 5785 5789
5806 5796 5825 5826 5821 5811 5802 5788 5816 5798 5815 5806 5827 5837 5855 5860 5850 5855 5858 5858 5858 5856 5858 5854 5849 5841 5832 5823 5816 5810 5802 5793 5790 5788 5784 5781 5778 5777 5779 5781 5780 5782 5784 5788
5810 5784 5814 5816 5819 5819 5807 5823 5790 5797 5763 5765 5810 5815 5821 5838 5834 5843 5848 5851 5854 5852 5854 5857 5852 5845 5837 5828 5821 5815 5808 5799 5796 5793 5788 5784 5782 5780 5781 5783 5781 5783 5783 5783
5808 5798 5804 5812 5797 5798 5799 5792 5799 5807 5810 5790 5788 5816 5849 5834 5835 5839 5849 5853 5852 5848 5852 5853 5852 5848 5841 5832 5826 5817 5811 5804 5799 5797 5794 5790 5787 5786 5782 5783 5782 5780 5781 5783
5810 5799 5782 5797 5823 5826 5820 5815 5812 5784 5774 5796 5797 5807 5862 5851 5844 5843 5843 5848 5851 5846 5851 5852 5851 5846 5839 5830 5826 5820 5816 5811 5807 5804 5799 5794 5792 5789 5786 5782 5783 5782 5780 5781
5802 5782 5767 5782 5811 5826 5806 5809 5814 5823 5822 5800 5790 5811 5862 5854 5845 5848 5847 5847 5844 5843 5845 5848 5846 5840 5836 5830 5825 5824 5819 5815 5812 5806 5800 5798 5794 5791 5789 5787 5785 5784 5781 5779
5787 5785 5779 5777 5800 5814 5790 5799 5804 5807 5795 5800 5805 5815 5834 5839 5839 5843 5847 5841 5840 5839 5840 5843 5841 5838 5835 5832 5826 5825 5821 5820 5816 5810 5803 5798 5796 5794 5791 5790 5786 5784 5781 5778
5772 5754 5770 5783 5796 5799 5792 5790 5791 5786 5794 5780 5798 5808 5827 5837 5839 5842 5845 5839 5833 5832 5834 5838 5837 5834 5831 5828 5825 5824 5823 5820 5817 5811 5803 5799 5798 5796 5793 5790 5787 5783 5781 5779
5767 5746 5758 5756 5777 5779 5773 5780 5784 5786 5785 5783 5787 5789 5822 5832 5835 5831 5830 5833 5828 5828 5829 5831 5832 5831 5826 5825 5822 5822 5822 5818 5815 5810 5805 5804 5800 5796 5793 5790 5785 5781 5778 5776
5747 5745 5740 5732 5755 5762 5744 5763 5768 5774 5785 5782 5769 5793 5817 5815 5819 5824 5822 5817 5815 5819 5828 5827 5827 5829 5828 5824 5821 5817 5816 5817 5812 5808 5804 5801 5796 5790 5787 5784 5781 5777 5774 5773
5726 5726 5730 5718 5732 5702 5756 5784 5780 5769 5776 5782 5783 5793 5803 5810 5815 5808 5809 5804 5805 5816 5820 5823 5824 5826 5827 5826 5823 5818 5814 5810 5806 5802 5798 5795 5793 5788 5785 5780 5776 5773 5771 5768
5727 5717 5707 5698 5707 5729 5747 5758 5754 5752 5753 5767 5766 5775 5782 5791 5788 5791 5793 5797 5800 5808 5818 5820 5823 5822 5822 5821 5821 5815 5809 5804 5799 5795 5792 5790 5790 5785 5781 5777 5775 5771 5763 5762
5717 5715 5699 5696 5682 5687 5733 5755 5753 5740 5717 5757 5757 5750 5757 5759 5752 5764 5772 5787 5796 5804 5809 5813 5818 5816 5813 5814 5815 5808 5803 5800 5794 5794 5790 5788 5785 5779 5776 5771 5765 5758 5756 5749
5685 5687 5680 5687 5682 5700 5725 5738 5738 5687 5708 5730 5729 5728 5727 5728 5737 5752 5765 5776 5790 5797 5800 5807 5810 5806 5807 5807 5807 5799 5797 5785 5778 5779 5776 5773 5773 5764 5759 5756 5753 5751 5746 5740
5672 5660 5664 5678 5670 5669 5724 5720 5699 5704 5706 5709 5709 5709 5708 5718 5730 5741 5751 5765 5777 5785 5791 5794 5795 5796 5792 5797 5795 5786 5776 5769 5769 5766 5762 5756 5753 5751 5747 5743 5739 5733 5731 5734
5654 5667 5666 5676 5670 5674 5689 5691 5698 5695 5691 5695 5695 5699 5701 5705 5714 5726 5737 5751 5765 5774 5780 5786 5787 5782 5780 5781 5779 5773 5766 5763 5760 5755 5749 5744 5739 5736 5731 5727 5727 5725 5731 5732
5653 5659 5646 5641 5678 5677 5671 5675 5681 5685 5680 5683 5684 5685 5689 5695 5704 5713 5725 5736 5749 5762 5767 5775 5772 5765 5769 5774 5771 5767 5758 5755 5749 5745 5740 5733 5728 5722 5716 5713 5713 5714 5719 5716
5647 5647 5638 5634 5642 5659 5670 5666 5666 5665 5664 5665 5671 5672 5676 5684 5693 5701 5711 5720 5734 5747 5755 5762 5757 5755 5762 5764 5762 5757 5752 5749 5743 5737 5733 5725 5718 5708 5698 5693 5692 5703 5698 5690
5639 5634 5629 5635 5644 5642 5643 5649 5651 5646 5649 5657 5659 5661 5669 5675 5683 5691 5699 5709 5720 5732 5744 5744 5747 5748 5750 5752 5751 5748 5746 5745 5740 5733 5727 5721 5715 5708 5694 5689 5681 5679 5675 5678